Location: Home
(42.5358°N, 72.7383°W)
Time: 20:57:32
(UTC-05:00)

Altair - Pass Details

Date: 13 December 2021
Orbit: 1501 x 1683 km, 47.2° (Epoch: 26 January)

Event Time Altitude Azimuth Distance (km) Brightness Sun altitude
Rises 18:42:03 0° 296° (WNW) 4,721 10.9 -25.6°
Reaches altitude 10° 18:45:10 10° 293° (WNW) 3,715 10.2 -26.2°
Maximum altitude 18:54:20 64° 215° (SW) 1,646 7.7 -27.8°
Enters shadow 18:59:38 28° 144° (SE) 2,533 8.3 -28.8°
